Location: Chiroubles
(46.1812°N, 4.6660°E)
Time: 16:29:30
(UTC+00:00)

Transit 4A - Pass Details

Date: 30 November 2020
Orbit: 864 x 980 km, 66.8° (Epoch: 26 January)

Event Time Altitude Azimuth Distance (km) Brightness Sun altitude
Rises 15:12:41 0° 328° (NNW) 3,687 10.9 5.5°
Reaches altitude 10° 15:15:22 10° 333° (NNW) 2,730 10.3 5.1°
Maximum altitude 15:21:36 52° 50° (NE) 1,184 8.2 4.3°
Drops below altitude 10° 15:27:38 10° 126° (SE) 2,657 10.1 3.4°
Sets 15:30:13 0° 131° (SE) 3,580 10.8 3.1°
